Regional Weather Roundup
Issued by NWS

Home | Current Version | Previous Version | Graphics & Text | Print | Product List | Glossary On
Versions: 1 2 3 4 5 6 7 8 9 10 11 12 13 14 15 16 17 18 19 20 21 22 23 24 25 26 27 28 29 30 31 32 33 34 35 36 37 38 39 40 41 42 43 44 45 46 47 48 49 50
000
ASUS43 KMKX 251411
RWRWI

WISCONSIN REGIONAL WEATHER ROUNDUP
NATIONAL WEATHER SERVICE MILWAUKEE/SULLIVAN WI
900 AM CDT MON SEP 25 2017

NOTE: "FAIR" INDICATES FEW OR NO CLOUDS BELOW 12,000 FEET WITH NO
SIGNIFICANT WEATHER AND/OR OBSTRUCTIONS TO VISIBILITY.

WIZ001-002-006>008-014>016-023>028-251500-
NORTHWEST WISCONSIN

CITY           SKY/WX    TMP DP  RH WIND       PRES   REMARKS
SUPERIOR ARPT  LGT RAIN  56  54  91 NW6       30.00R
ASHLAND        CLOUDY    63  61  93 W7        29.98S
HAYWARD        CLOUDY    64  62  93 N7        29.97F
SIREN          CLOUDY    60  58  96 N5        30.00R
CUMBERLAND     CLOUDY    63  61  94 NW6       29.99R
RICE LAKE      PTSUNNY   67  65  96 CALM      29.99S
CHETEK         PTSUNNY   70  66  88 MISG      29.97S
LADYSMITH      PTSUNNY   67  64  93 CALM      30.00S
EAU CLAIRE     SUNNY     69  65  86 NE3       29.96S
MENOMONIE      PTSUNNY   70  66  88 NW5       29.98S
NEW RICHMOND   CLOUDY    61  60  97 NW9       30.00R
OSCEOLA        CLOUDY    60  60 100 NW5       30.03R
$$

WIZ003>005-009-010-017-018-251500-
NORTH CENTRAL WISCONSIN

CITY           SKY/WX    TMP DP  RH WIND       PRES   REMARKS
MANITOWISH WTR PTSUNNY   68  68 100 W6        30.01
ARBOR VITAE    MOSUNNY   72  66  81 SW5       30.01R
WOODRUFF       MOSUNNY   72  66  81 SW5       30.01R
RHINELANDER    SUNNY     70  63  78 S5        30.02R
EAGLE RIVER    SUNNY     69  61  74 CALM      30.01S
LAND O LAKES   SUNNY     69  61  76 SW3       30.02S
PHILLIPS       CLOUDY    67  65  94 CALM      30.00R
TOMAHAWK       SUNNY     67  61  80 CALM      30.01S
MEDFORD        MOSUNNY   67  62  84 S3        30.00R
MERRILL        SUNNY     67  62  86 CALM      30.00S
$$

WIZ029-030-035-036-043>047-251500-
CENTRAL WISCONSIN

CITY           SKY/WX    TMP DP  RH WIND       PRES   REMARKS
WAUSAU         MOSUNNY   68  61  78 CALM      29.99R
MOSINEE        PTSUNNY   66  63  88 CALM      30.01S
MARSHFIELD     MOSUNNY   69  62  78 S3        29.99S
STEVENS POINT  PTSUNNY   70  62  76 S5        30.00S
WAUPACA        SUNNY     72  64  76 SE3       29.99F
WAUTOMA        SUNNY     69  63  81 CALM      30.00S
WISC RAPIDS    SUNNY     73  63  70 CALM      30.00R
CAMP DOUGLAS   MOSUNNY   70  64  83 CALM      29.98R
$$

WIZ011>013-019>022-031-037>040-048>050-251500-
NORTHEAST WISCONSIN

CITY           SKY/WX    TMP DP  RH WIND       PRES   REMARKS
ANTIGO         MOSUNNY   69  62  80 S3        30.02S
SHAWANO        SUNNY     73  64  72 CALM      29.99F
OCONTO         SUNNY     72  63  73 CALM      29.99S
STURGEON BAY   PTSUNNY   77  62  59 SW7       30.01R
GREEN BAY      MOSUNNY   73  64  73 S5        29.99S
MANITOWOC      MOSUNNY   71  64  78 SE5       30.01S
APPLETON       PTSUNNY   70  61  73 CALM      29.99S
CLINTONVILLE   MOSUNNY   72  63  73 CALM      30.00S
OSHKOSH        MOSUNNY   74  63  68 S8        29.99S
$$

WIZ032>034-041-042-053>061-251500-
SOUTHWEST WISCONSIN

CITY           SKY/WX    TMP DP  RH WIND       PRES   REMARKS
LA CROSSE      MOSUNNY   73  65  75 E3        29.95S
SPARTA         MOSUNNY   70  64  79 CALM      29.97S
VIROQUA        MOSUNNY   73  64  73 S6        29.99S
BOSCOBEL       SUNNY     71  64  78 CALM      29.98S
PRAIRIE DU CHI SUNNY     71  62  71 CALM      29.97S
PLATTEVILLE    SUNNY     73  65  76 S7        30.00S
$$

WIZ056-057-062-063-064-067-068-251500-
SOUTH CENTRAL WISCONSIN

CITY           SKY/WX    TMP DP  RH WIND       PRES   REMARKS
REEDSBURG      SUNNY     72  64  74 CALM      29.99R
BARABOO/DELLS  SUNNY     74  60  61 S6        29.99S
LONE ROCK      SUNNY     71  64  78 E3        29.99R
MINERAL POINT  SUNNY     73  64  73 S5        30.01S
MADISON        SUNNY     73  62  68 S6        30.00R
MIDDLETON      SUNNY     76  62  61 SW3       30.01S
WATERTOWN      MOSUNNY   73  63  70 S7        30.01R
MONROE         SUNNY     72  59  64 S5        30.01S
JANESVILLE     MOSUNNY   72  61  68 CALM      30.01R
$$

WIZ051-052-058>065-066-070>072-251500-
SOUTHEAST WISCONSIN

CITY           SKY/WX    TMP DP  RH WIND       PRES   REMARKS
MILWAUKEE      MOSUNNY   79  61  53 VRB3      30.01S HX  80
WAUKESHA       MOSUNNY   72  61  68 CALM      30.03R
MILWAUKEE/TIMM MOSUNNY   72  61  68 CALM      30.02S
RACINE         SUNNY     77  63  61 CALM      30.03S
BURLINGTON     SUNNY     74  63  70 SW5       30.01S
KENOSHA        SUNNY     75  61  61 SW7       30.02R
FOND DU LAC    SUNNY     75  60  59 S5        30.00S
SHEBOYGAN      MOSUNNY   72  66  81 S3        30.01S
WEST BEND        N/A     72  63  73 CALM      30.01F
JUNEAU         SUNNY     71  61  69 S5        30.02S
$$

LSZ147-162-251500-
LAKE SUPERIOR

STATION/POSITION TIME  TEMP    WIND        PRES    WAVE
                       AIR SEA DIR/SP/G            HT/PER
                 (UTC) (F)     (DEG/KT/KT) (MB)    (FT/S)
W MID LAKE BUOY  1350   59 56  270/  6/  8 1013.5R   1
DEVILS ISLAND    1400   61     260/  8/ 10 1015.2R
PORT WING        1240   63     260/  8/ 11 1015.2R
SAXON HARBOR     1340   65     310/  8/ 11 1014.9R
$$

LMZ867-665-643>646-251500-
LAKE MICHIGAN

STATION/POSITION TIME  TEMP    WIND        PRES    WAVE
                       AIR SEA DIR/SP/G            HT/PER
                 (UTC) (F)     (DEG/KT/KT) (MB)    (FT/S)
S GREEN BAY BUOY 1400   71 69  190/  4/  6 1015.4R
N MID LAKE BUOY  1350   69 67  190/ 12/ 14 1016.2R   1/ 3
NORTHPORT PIER   1340   74     170/  4/  7 1015.6R
KEWAUNEE LAKESHO 1342   64     170/  3/  5 1015.1R
SHEBOYGAN LAKESH 1400   71     170/  8/  9 1015.5S
PORT WASHINGTON  1330   76     170/  1/  2 1016.9S
ATWATER BUOY     1309   69 65  150/  4/  6 1016.2F
MILWAUKEE LAKESH 1350   71     140/  7/  7   N/A
S MID LAKE BUOY  1350   72 71  160/  8/ 10 1016.7R   1
KENOSHA   LAKESH 1400   71     150/  8/  8 1016.3
$$

TC  - TEMPERATURE IN CELSIUS
VSB - VISIBILITY IN STATUTE MILES
WCI - WIND CHILL INDEX
HX  - HEAT INDEX





USA.gov is the U.S. government's official web portal to all federal, state and local government web resources and services.